sat.trackr.live / text

‹ back to catalog

STARLINK-4317

NORAD 53058 · 2022-077R

PAYLOAD ACTIVE UNKNOWN

§ Identity

Operator
Country
US
Launch date
2022-07-11
Launch site
AFWTR
Launch vehicle
Mass (kg)
RCS (m²)

Purposes: comms

External: N2YO · Heavens-Above · Gunter

§ Orbital elements

Epoch: 2026-09-19T17:54:38.212704Z

Period
93.91 min
Inclination
97.2852°
Eccentricity
0.0001688
Mean motion
15.33435805 rev/d
Perigee alt
464.4 km
Apogee alt
466.7 km
Semi-major
6,843.7 km
B*
1.2137e-6
RAAN
77.5551°
Arg perigee
88.9283°
Mean anomaly
271.2153°
Rev number
23,018

§ Raw data

STARLINK-43171 53058U 22077R   26262.74627561 -.00000036  00000+0  12137-5 0  99932 53058  97.2852  77.5551 0001688  88.9283 271.2153 15.33435805230189

JSON: /api/v1/satellites/53058 · /tle

For live sub-satellite position, see the globe view (requires WebGL).

§ Visibility from observer

Set your observer location to see the next 7 days of passes ≥ 10°. The values pass through the URL so the page stays shareable.

No JS? Fill the form by hand. The geolocation button needs JavaScript.